Location: Banios
(43.0451°N, 0.2335°E)
Time: 17:52:00
(UTC+00:00)

Cosmos 1626 Rocket - Visible Passes

Search period start: 14 May 2021 00:00
Search period end: 24 May 2021 00:00
Orbit: 604 x 630 km, 82.5° (Epoch: 13 May)

Date Brightness Start Highest point End Pass type
(mag) Time Alt. Az. Time Alt. Az. Time Alt. Az.
14 May 4.7 03:51:39 10° SSE 03:55:51 47° E 04:00:07 10° NNE visible
16 May 6.3 02:49:25 10° ESE 02:51:52 15° E 02:54:19 10° NE visible
17 May 5.7 03:04:39 10° SE 03:08:18 26° E 03:11:58 10° NNE visible
18 May 4.6 03:20:37 10° SSE 03:24:50 47° E 03:29:06 10° NNE visible
19 May 3.6 03:37:03 10° S 03:41:27 87° E 03:45:55 10° N visible
20 May 6.2 02:18:23 10° ESE 02:20:50 15° E 02:23:17 10° NE visible
20 May 3.9 03:53:53 10° SSW 03:58:10 50° WNW 04:02:31 10° N visible
21 May 5.5 02:33:37 10° SE 02:37:16 26° E 02:40:57 10° NNE visible
22 May 4.5 02:49:34 10° SSE 02:53:48 46° E 02:58:04 10° NNE visible
23 May 3.6 03:06:16 12° S 03:10:25 87° E 03:14:54 10° N visible
